Regional Weather Roundup
Issued by NWS

Home | Current Version | Previous Version | Graphics & Text | Print | Product List | Glossary On
Versions: 1 2 3 4 5 6 7 8 9 10 11 12 13 14 15 16 17 18 19 20 21 22 23 24 25 26 27 28 29 30 31 32 33 34 35 36 37 38 39 40 41 42 43 44 45 46 47 48 49 50
080
ASUS45 KBOI 271410
RWRID

IDAHO REGIONAL WEATHER ROUNDUP
NATIONAL WEATHER SERVICE BOISE ID
800 AM MDT MON MAR 27 2017

NOTE: "FAIR" INDICATES FEW OR NO CLOUDS BELOW 12000 FEET
WITH NO SIGNIFICANT WEATHER AND/OR OBSTRUCTIONS TO VISIBILITY

IDZ012-014-271500-
SOUTHWEST IDAHO


CITY           SKY/WX    TMP DP  RH WIND       PRES   REMARKS
BOISE          CLOUDY    42  40  92 CALM      29.94R
CALDWELL       MOCLDY    40  38  93 W9        29.96R WCI  34
MOUNTAIN HOME  CLOUDY    41  41 100 NW5       29.93R
$$

IDZ016-017-271500-
SOUTHCENTRAL IDAHO


CITY           SKY/WX    TMP DP  RH WIND       PRES   REMARKS
BURLEY         CLOUDY    39  35  86 SW7       29.90R WCI  34
JEROME         CLOUDY    39  39 100 W12       29.90S FOG     WCI  32
TWIN FALLS     CLOUDY    39  36  89 SW9       29.91R WCI  33
$$

IDZ019>023-271500-
SOUTHEAST IDAHO


CITY           SKY/WX    TMP DP  RH WIND       PRES   REMARKS
IDAHO FALLS    CLOUDY    38  35  89 CALM      29.87S
POCATELLO      CLOUDY    40  39  97 SW13      29.90R WCI  32
REXBURG        CLOUDY    39  33  79 S6        29.88R WCI  35
$$

IDZ006-010-011-018-031-032-271500-
CENTRAL IDAHO MOUNTAINS


CITY           SKY/WX    TMP DP  RH WIND       PRES   REMARKS
MCCALL         LGT SNOW  33  31  92 CALM      29.87R FOG
HAILEY         CLOUDY    34  34 100 CALM      29.89R
STANLEY          N/A     30  29  96 CALM      29.88R
SALMON         CLOUDY    39  34  81 CALM      29.87R
CHALLIS        CLOUDY    36  30  79 CALM      29.87R
$$

IDZ002-004-006-007-026-271500-
NORTHERN IDAHO


CITY           SKY/WX    TMP DP  RH WIND       PRES   REMARKS
LEWISTON       FOG       43  41  93 NE5       29.94R VSB 3/4
LOWELL           N/A     41  39  93 CALM      29.98R
COEUR D`ALENE  LGT RAIN  41  39  93 S9        29.88R
MULLAN PASS    LGT SNOW  29  29 100 VRB5      29.81R VSB 3/4 WCI  24
$$




USA.gov is the U.S. government's official web portal to all federal, state and local government web resources and services.